Content
SEND FEEDBACK

Daily
Averages
Monthly
Summary
United States of America

STATEN ISLAND, NEW YORK


Home > North America > United States > New York
Elevation: 152 feet     Latitude: 40 35N     Longitude: 074 09W

WEATHER
 
SELECT A DAY
Number of Records: 189,619;   Date Range: 1/1/95 - 7/27/14
 
SHARE

PRINT THIS DATA

[ ← Previous Day ]
WEATHER ALMANAC - APRIL 6, 2013
[ Next Day → ]
[ °C ]   °F
Weather ElementAverageHighLow
Temperature43.8 °F53.1 °F (2:51 pm)35.1 °F (6:51 am)
Dewpoint15.4 °F28.4 °F (8:51 pm)3.9 °F (11:51 am)
Humidity35.5 %65 % (11:51 pm)15 % (2:51 pm)
Barometer30.24 in30.32 in (10:51 pm)30.05 in (1:51 am)
Wind Speed10.3 mph23 mph (2:51 am)
Wind Gust32.2 mph (2:51 am)
Weather ElementAverage
Visibility10 mi
Wind DirectionWSW (252.9 °)

Weather ElementTotal
Precipitation---
Heating Degree Days20.9 (Base 65)
Averaged from 24 records on April 6, 2013
WEATHER CONDITIONS BREAKOUT
WIND DIRECTION BREAKOUT
WEATHER BY HOUR - APRIL 6, 2013
[ °C ]   °F
Local TimeTemperatureDewpointHumidityBarometerVisibilityWind DirectionWind SpeedGust SpeedPrecipitationEventsConditions
1:51 AM39.9 °F17.1 °F40 %30.05 in10.0 miNW (320°)21.9 mph27.6 mphClear
2:51 AM39.0 °F17.1 °F41 %30.06 in10.0 miNW (320°)23.0 mph32.2 mphClear
3:51 AM37.9 °F14.0 °F38 %30.09 in10.0 miNW (320°)17.3 mph24.2 mphClear
4:51 AM37.0 °F15.1 °F41 %30.13 in10.0 miNW (320°)13.8 mph21.9 mphClear
5:51 AM36.0 °F17.1 °F46 %30.17 in10.0 miNW (320°)10.4 mphClear
6:51 AM35.1 °F18.0 °F50 %30.19 in10.0 miNW (310°)10.4 mphScattered Clouds
7:51 AM37.9 °F18.0 °F45 %30.24 in10.0 miNNW (330°)15.0 mph18.4 mphScattered Clouds
8:51 AM39.9 °F10.0 °F29 %30.26 in10.0 miNorth (360°)15.0 mphPartly Cloudy
9:51 AM42.1 °F10.0 °F27 %30.28 in10.0 miNorth (360°)5.8 mph21.9 mphPartly Cloudy
10:51 AM43.0 °F9.0 °F25 %30.30 in10.0 miNorth (350°)5.8 mph17.3 mphPartly Cloudy
11:51 AM46.0 °F3.9 °F18 %30.30 in10.0 miNW (320°)11.5 mph20.7 mphPartly Cloudy
12:51 PM46.9 °F5.0 °F18 %30.29 in10.0 miNNW (340°)5.8 mph17.3 mphPartly Cloudy
1:36 PM48.2 °F5.0 °F17 %30.28 in10.0 miVariable3.5 mphScattered Clouds
1:51 PM51.1 °F6.1 °F16 %30.28 in10.0 miNW (310°)12.7 mph21.9 mphScattered Clouds
2:51 PM53.1 °F6.1 °F15 %30.27 in10.0 miWest (270°)5.8 mphClear
3:51 PM52.0 °F6.1 °F16 %30.26 in10.0 miNorth (360°)5.8 mphClear
4:51 PM53.1 °F7.0 °F16 %30.26 in10.0 miVariable6.9 mphPartly Cloudy
5:51 PM50.0 °F21.0 °F32 %30.27 in10.0 miSE (140°)15.0 mph18.4 mphScattered Clouds
6:51 PM48.0 °F24.1 °F39 %30.28 in10.0 miSouth (170°)8.1 mphScattered Clouds
7:51 PM46.0 °F28.0 °F50 %30.29 in10.0 miSSE (160°)6.9 mphScattered Clouds
8:51 PM44.6 °F28.4 °F53 %30.30 in10.0 miSSE (160°)6.9 mphScattered Clouds
9:51 PM43.0 °F28.0 °F56 %30.31 in10.0 miSouth (170°)5.8 mphScattered Clouds
10:51 PM41.0 °F28.0 °F60 %30.32 in10.0 miSouth (180°)6.9 mphPartly Cloudy
11:51 PM39.2 °F28.4 °F65 %30.31 in10.0 miSouth (180°)6.9 mphScattered Clouds
Hourly data recorded from KEWR, located miles away from Staten Island, New York







STORIES FROM OUR PARTNERS